Tracking 28790 objects as of 19-Apr-2024
HD Live streaming from Space Station
objects crossing your sky now

COSMOS 2252

Track COSMOS 2252 now!
10-day predictions
COSMOS 2252 is classified as:


NORAD ID: 22687
Int'l Code: 1993-038A
Perigee: 1,410.5 km
Apogee: 1,422.5 km
Inclination: 82.6 °
Period: 114.0 minutes
Semi major axis: 7787 km
RCS: 1.1207 m2 (large)
Launch date: June 24, 1993
Source: Commonwealth of Independent States (former USSR) (CIS)
Launch site: PLESETSK MISSILE AND SPACE COMPLEX (PKMTR)
Your satellite tracking list
Your tracking list is empty




NASA's NSSDC Master Catalog

Two Line Element Set (TLE):
1 22687U 93038A   24110.25492363  .00000035  00000-0  13580-3 0  9998
2 22687  82.5877  12.0459 0007723 337.0381 141.0646 12.63298093421180
Source of the keplerian elements: AFSPC